Regional Weather Roundup
Issued by NWS Charleston, SC

Current Version | Previous Version | Text Only | Print | Product List | Glossary Off
Versions: 1 2 3 4 5 6 7 8 9 10 11 12 13 14 15 16 17 18 19 20 21 22 23 24 25 26 27 28 29 30 31 32 33 34 35 36 37 38 39 40 41 42 43 44 45 46 47 48 49 50

744
ASUS42 KCHS 010013
RWRCHS

REGIONAL WEATHER ROUNDUP
NATIONAL WEATHER SERVICE CHARLESTON SC
800 PM EDT TUE MAY 31 2016

NOTE: "FAIR" INDICATES FEW OR NO CLOUDS BELOW 12,000 FEET WITH NO
SIGNIFICANT WEATHER AND/OR OBSTRUCTIONS TO VISIBILITY.

NOT ALL STATIONS ARE QUALITY CONTROLLED. USE DATA WITH CAUTION...
ESPECIALLY DEWPOINT OBSERVATIONS.

SCZ027-030-031-034>040-042>050-010100-
...SOUTHEAST SOUTH CAROLINA...

CITY           SKY/WX    TMP DP  RH WIND       PRES   REMARKS
N CHARLESTON   TSTM      77  72  84 E8        29.90R
6HR MIN TEMP:  77; 6HR MAX TEMP:  90; 6HR PCP:  0.29;

WATERFRONT PRK   N/A     78  74  87 E12       29.88R
MOUNT PLEASANT FAIR      73  72  94 CALM      29.90S
JOHNS ISLAND   MOCLDY    79  73  83 E8        29.91R
PINOPOLIS        N/A     84  73  70 E8        29.82R HX  91
MONCKS CORNER  LGT RAIN  75  68  78 SE3       29.90R
SUMMERVILLE    FAIR      84  72  65 CALM      29.90R
BEAUFORT MCAS  CLEAR     85  71  63 CALM      29.89R HX  90
6HR MIN TEMP:  85; 6HR MAX TEMP:  89;

BEAUFORT ARPT  FAIR      81  70  69 S8        29.89R
HILTON HEAD IS CLEAR     82  73  74 S9        29.91R
WALTERBORO     CLEAR     86  68  54 CALM      29.90R
ALLENDALE      FAIR      84  72  65 CALM      29.89R

...SOUTHERN MIDLANDS AND PEE DEE...

CITY           SKY/WX    TMP DP  RH WIND       PRES   REMARKS
GEORGETOWN     FAIR      72  70  94 W3        29.90F
KINGSTREE      MOCLDY    77  70  78 E6        29.91R
ORANGEBURG     PTCLDY    84  70  62 CALM      29.89R
6HR MIN TEMP:  83; 6HR MAX TEMP:  90;

BARNWELL       FAIR      90  73  58 CALM      29.90R HX  98
AIKEN          FAIR      84  64  51 N6        29.94R
MANNING        FAIR      79  68  69 CALM      29.89R
COLUMBIA       CLOUDY    83  69  62 CALM      29.90R
6HR MIN TEMP:  79; 6HR MAX TEMP:  92; 6HR PCP: TRACE;

SUMTER         CLEAR     80  69  68 NE2       29.88R
6HR MIN TEMP:  80; 6HR MAX TEMP:  89; 6HR PCP: TRACE;

FLORENCE       CLOUDY    78  70  76 SE6       29.91S
6HR MIN TEMP:  78; 6HR MAX TEMP:  89;

MYRTLE BEACH   MOCLDY    75  66  73 N8        29.91S
N MYRTLE BEACH CLOUDY    75  71  87 N7        29.88F
6HR MIN TEMP:  73; 6HR MAX TEMP:  77; 6HR PCP:  0.05;


$$

GAZ063-065-086>088-099>101-113>116-118-119-134>141-150-010100-
...SOUTHEAST GEORGIA...

CITY           SKY/WX    TMP DP  RH WIND       PRES   REMARKS
SAVANNAH ARPT  MOCLDY    81  70  69 SW10      29.91R
6HR MIN TEMP:  81; 6HR MAX TEMP:  92;

HUNTER AAF     PTCLDY    79  74  84 S7        29.89R
6HR MIN TEMP:  79; 6HR MAX TEMP:  89; 6HR PCP: TRACE;

FORT STEWART   PTCLDY    79  70  74 S7        29.90R
6HR MIN TEMP:  79; 6HR MAX TEMP:  92;

STATESBORO     CLEAR     85  74  70 CALM      29.90R HX  92
SYLVANIA       CLEAR     86  74  66 CALM      29.90S HX  93
CLAXTON        FAIR      86  73  64 E5        29.89R HX  92

...CSRA...CENTRAL AND FAR SOUTHEAST GEORGIA...

CITY           SKY/WX    TMP DP  RH WIND       PRES   REMARKS
THOMSON        CLEAR     85  68  55 NE3       29.95R
AUGUSTA-BUSH   CLEAR     82  73  74 SW3       29.88R
6HR MIN TEMP:  82; 6HR MAX TEMP:  90;

AUGUSTA-DANIEL CLEAR     87  66  49 CALM      29.91R
SWAINSBORO     FAIR      88  64  45 E3        29.91R
VIDALIA        PTCLDY    86  68  54 CALM      29.89S
EASTMAN        FAIR      89  65  46 SE5       29.91R HX  90
HAZLEHURST     FAIR      88  64  43 CALM      29.88R
ALMA           CLEAR     80  64  58 E5        29.89R
6HR MIN TEMP:  80; 6HR MAX TEMP:  93;

WAYCROSS       PTCLDY    83  67  58 SE10      29.90R
JESUP          DRIZZLE   70  64  83 CALM      29.91R
BAXLEY         FAIR      81  72  74 S5        29.90R
BRUNSWICK      CLOUDY    82  73  74 NW3       29.93R
SAINT SIMONS   PTCLDY    79  73  82 CALM      29.92R
6HR MIN TEMP:  79; 6HR MAX TEMP:  85;


$$

SCZ027-028-034-036>038-045-046-048>050-GAZ119-141-010100-
...LAKE AND SUPPLEMENTAL COASTAL OBSERVATIONS...

STATION/POSITION TIME  TEMP    WIND        PRES    WAVE   SWELL
                       AIR SEA DIR/SP/G            HT/PER HT/PER/DIR
                 (UTC) (F)     (DEG/KT/KT) (MB)    (FT/S) (FT/S/D)
WINYAH BAY       NOT AVBL
LAKE MURRAY      2300   82      40/  2/  5 1011.9R
ACE BASIN NERRS  NOT AVBL
FORT PULASKI     2300   78 77                N/A
SAPELO ISLAND    2300   79     130/  6     1012.0S

$$

ANZ835-935-AMZ111-154-330-350-352-354-370-450-454-472-010100-
...C-MAN AND BUOY OBSERVATIONS...

STATION/POSITION TIME  TEMP    WIND        PRES    WAVE   SWELL
                       AIR SEA DIR/SP/G            HT/PER HT/PER/DIR
                 (UTC) (F)     (DEG/KT/KT) (MB)    (FT/S) (FT/S/D)
BUOY 41004       2350   76 78  280/  4/  4 1011.8R   3/ 8   3/ 8
BUOY 41008       2350   77 77  150/  8/  8 1012.9R   2/ 8   2/100/ 8
FOLLY BEACH CMAN 0000   76      80/  6/  7 1013.0R
CAPERS NEARSHORE 2308   75 77   50/ 12/ 16 1011.9R
FRIPP NEARSHORE  2308   77 78  190/  8/ 10 1011.0F


STATION/POSITION TIME  TEMP    WIND        PRES    WAVE   SWELL
                       AIR SEA DIR/SP/G            HT/PER HT/PER/DIR
                 (UTC) (F)     (DEG/KT/KT) (MB)    (FT/S) (FT/S/D)
5E ST. MARYS GA  0001      80                N/A     2/ 9
FRYING PAN BUOY  2300   78 80  180/  8/ 10 1010.1R
BUOY 41025       2350   76 81  180/ 21/ 23 1013.4    3/ 8   2/ 90/13
CAPE LOOKOUT NC  0000   73     140/  6/  6 1012.6R
BUOY 41002       2350   77 77  150/ 12/ 14 1014.1S   5/ 8   3/ 90/ 8
BUOY 41010       2320   80 80  190/  8/  8 1013.6R
ST AUGUSTINE FL  0000   81 81  190/  6/  7 1013.4R


$$




USA.gov is the U.S. government's official web portal to all federal, state and local government web resources and services.